Date String (YYYY-MM-DD hh:mm:ss) UTC,Instrument flags,Ambient pressure (hPa),Sample flow (lpm),Bypass flow (lpm),Sample temperature (°C),Ambient temperature (°C),ASC tube jacket temperature (°C),LED temperature (°C),Box temperature (°C),Sample RH (%),Span deviation,Mass concentration (μg/m³),Mass concentration (μg/m³),Mass concentration (μg/m³)
DateTimeUTC,F1_M11,P_M11,Q1_M11,Q2_M11,T1_M11,T2_M11,T3_M11,T4_M11,T5_M11,U1_M11,ZSPAN_M11,X0_M11,X2_M11,X1_M11
2021-11-22 22:00:00,,0829.2,5.00,0.00,30.9,30.1,00.0,39.8,32.6,07.6,0000.0,0029.70,0008.57,0006.63
2021-11-22 22:01:00,,0829.2,5.01,0.00,30.9,30.1,00.0,39.8,32.6,07.5,0000.0,0027.95,0008.54,0006.60
2021-11-22 22:02:00,,0829.4,5.00,0.00,30.9,30.1,00.0,39.8,32.6,07.5,0000.0,0026.83,0008.50,0006.57
2021-11-22 22:03:00,,0829.3,4.99,0.00,30.9,30.1,00.0,39.8,32.6,07.5,0000.0,0025.59,0008.53,0006.54
2021-11-22 22:04:00,,0829.3,5.01,0.00,30.9,30.2,00.0,39.8,32.6,07.5,0000.0,0024.54,0008.43,0006.49
2021-11-22 22:05:00,,0829.3,5.00,0.00,30.9,30.2,00.0,39.8,32.6,07.4,0000.0,0024.63,0008.34,0006.44
2021-11-22 22:06:00,,0829.4,4.99,0.00,30.9,30.2,00.0,39.8,32.6,07.4,0000.0,0025.09,0008.24,0006.38
2021-11-22 22:07:00,,0829.4,5.01,0.00,30.9,30.2,00.0,39.9,32.7,07.4,0000.0,0024.01,0008.16,0006.32
2021-11-22 22:08:00,,0829.5,4.99,0.00,30.9,30.2,00.0,39.9,32.6,07.4,0000.0,0024.69,0008.06,0006.26
2021-11-22 22:09:00,,0829.5,5.00,0.00,31.0,30.2,00.0,39.9,32.7,07.4,0000.0,0025.56,0008.02,0006.17
2021-11-22 22:10:00,,0829.5,5.01,0.00,31.0,30.3,00.0,39.9,32.7,07.4,0000.0,0025.15,0007.99,0006.10
2021-11-22 22:11:00,,0829.5,5.00,0.00,31.0,30.3,00.0,39.9,32.7,07.4,0000.0,0024.64,0007.96,0006.04
2021-11-22 22:12:00,,0829.5,5.00,0.00,31.0,30.2,00.0,39.9,32.7,07.3,0000.0,0025.34,0007.87,0005.97
2021-11-22 22:13:00,,0829.5,5.00,0.00,31.0,30.2,00.0,39.9,32.7,07.3,0000.0,0025.56,0007.86,0005.91
2021-11-22 22:14:00,,0829.5,5.01,0.00,31.0,30.3,00.0,39.9,32.7,07.3,0000.0,0026.04,0007.77,0005.85
2021-11-22 22:15:00,,0829.5,5.01,0.00,31.0,30.3,00.0,39.9,32.7,07.3,0000.0,0026.64,0007.71,0005.79
2021-11-22 22:16:00,,0829.5,5.00,0.00,31.0,30.3,00.0,39.9,32.7,07.3,0000.0,0027.73,0007.68,0005.74
2021-11-22 22:17:00,,0829.5,4.99,0.00,31.0,30.3,00.0,40.0,32.7,07.3,0000.0,0028.62,0007.68,0005.71
2021-11-22 22:18:00,,0829.5,5.02,0.00,31.0,30.3,00.0,40.0,32.8,07.3,0000.0,0028.54,0007.68,0005.69
2021-11-22 22:19:00,,0829.5,5.00,0.00,31.0,30.3,00.0,40.0,32.8,07.4,0000.0,0028.80,0007.66,0005.68
2021-11-22 22:20:00,,0829.5,5.00,0.00,31.1,30.3,00.0,40.0,32.8,07.4,0000.0,0027.62,0007.60,0005.68
2021-11-22 22:21:00,,0829.5,5.00,0.00,31.1,30.3,00.0,40.0,32.8,07.3,0000.0,0029.28,0007.56,0005.67
2021-11-22 22:22:00,,0829.4,5.00,0.00,31.1,30.3,00.0,40.0,32.8,07.3,0000.0,0031.32,0007.63,0005.67
2021-11-22 22:23:00,,0829.4,5.00,0.00,31.1,30.4,00.0,40.0,32.8,07.3,0000.0,0030.78,0007.65,0005.67
2021-11-22 22:24:00,,0829.4,5.01,0.00,31.1,30.4,00.0,40.0,32.8,07.3,0000.0,0031.73,0007.67,0005.67
2021-11-22 22:25:00,,0829.4,4.99,0.00,31.1,30.4,00.0,40.0,32.9,07.3,0000.0,0033.07,0007.66,0005.66
2021-11-22 22:26:00,,0829.4,5.00,0.00,31.1,30.5,00.0,40.0,32.9,07.3,0000.0,0031.48,0007.63,0005.66
2021-11-22 22:27:00,,0829.4,4.99,0.00,31.1,30.5,00.0,40.1,32.9,07.3,0000.0,0029.13,0007.58,0005.66
2021-11-22 22:28:00,,0829.5,4.99,0.00,31.2,30.5,00.0,40.1,32.9,07.3,0000.0,0027.09,0007.57,0005.65
2021-11-22 22:29:00,,0829.5,5.01,0.00,31.2,30.1,00.0,40.1,32.8,07.3,0000.0,0026.53,0007.51,0005.63
2021-11-22 22:30:00,,0829.5,5.00,0.00,31.1,27.9,00.0,40.1,32.4,07.3,0000.0,0025.85,0007.50,0005.62
2021-11-22 22:31:00,,0829.5,4.99,0.00,30.9,26.5,00.0,40.0,32.0,07.4,0000.0,0025.18,0007.50,0005.59
2021-11-22 22:32:00,,0829.4,5.00,0.00,30.8,26.6,00.0,39.9,31.9,07.4,0000.0,0025.69,0007.55,0005.59
2021-11-22 22:33:00,,0829.4,5.01,0.00,30.6,27.1,00.0,39.9,31.9,07.5,0000.0,0023.45,0007.46,0005.57
2021-11-22 22:34:00,,0829.4,5.00,0.00,30.6,27.6,00.0,39.8,31.9,07.6,0000.0,0024.06,0007.38,0005.56
2021-11-22 22:35:00,,0829.4,4.99,0.00,30.6,28.1,00.0,39.7,32.0,07.5,0000.0,0023.66,0007.32,0005.53
2021-11-22 22:36:00,,0829.4,5.00,0.00,30.6,28.4,00.0,39.7,32.1,07.5,0000.0,0022.37,0007.26,0005.51
2021-11-22 22:37:00,,0829.5,5.00,0.00,30.6,28.7,00.0,39.7,32.1,07.4,0000.0,0022.81,0007.23,0005.50
2021-11-22 22:38:00,,0829.5,5.01,0.00,30.6,29.0,00.0,39.7,32.2,07.3,0000.0,0022.93,0007.20,0005.46
2021-11-22 22:39:00,,0829.5,5.01,0.00,30.6,29.2,00.0,39.7,32.2,07.2,0000.0,0023.18,0007.17,0005.44
2021-11-22 22:40:00,,0829.5,4.99,0.00,30.6,29.4,00.0,39.7,32.3,07.2,0000.0,0022.65,0007.08,0005.42
2021-11-22 22:41:00,,0829.5,5.00,0.00,30.6,29.5,00.0,39.7,32.3,07.2,0000.0,0022.01,0007.04,0005.40
2021-11-22 22:42:00,,0829.4,5.00,0.00,30.6,29.6,00.0,39.7,32.4,07.2,0000.0,0021.89,0006.97,0005.37
2021-11-22 22:43:00,,0829.5,5.01,0.00,30.7,29.7,00.0,39.7,32.4,07.2,0000.0,0021.04,0006.92,0005.35
2021-11-22 22:44:00,,0829.5,5.00,0.00,30.7,29.7,00.0,39.7,32.4,07.2,0000.0,0019.62,0006.87,0005.33
2021-11-22 22:45:00,,0829.5,5.00,0.00,30.7,29.8,00.0,39.7,32.5,07.2,0000.0,0018.65,0006.87,0005.33
2021-11-22 22:46:00,,0829.5,5.00,0.00,30.7,29.8,00.0,39.7,32.5,07.2,0000.0,0018.56,0006.85,0005.34
2021-11-22 22:47:00,,0829.5,5.01,0.00,30.8,29.9,00.0,39.7,32.6,07.3,0000.0,0017.76,0006.93,0005.40
2021-11-22 22:48:00,,0829.5,5.00,0.00,30.8,29.9,00.0,39.7,32.5,07.3,0000.0,0017.44,0007.02,0005.48
2021-11-22 22:49:00,,0829.5,4.99,0.00,30.8,30.0,00.0,39.7,32.6,07.3,0000.0,0017.50,0007.13,0005.59
2021-11-22 22:50:00,,0829.5,5.00,0.00,30.8,30.0,00.0,39.7,32.6,07.3,0000.0,0018.37,0007.18,0005.67
2021-11-22 22:51:00,,0829.5,5.00,0.00,30.8,30.1,00.0,39.7,32.6,07.3,0000.0,0019.14,0007.32,0005.75
2021-11-22 22:52:00,,0829.4,5.00,0.00,30.9,30.1,00.0,39.8,32.6,07.3,0000.0,0020.83,0007.48,0005.84
2021-11-22 22:53:00,,0829.4,4.99,0.00,30.9,30.1,00.0,39.8,32.7,07.3,0000.0,0021.36,0007.69,0005.94
2021-11-22 22:54:00,,0829.4,5.00,0.00,30.9,30.1,00.0,39.8,32.6,07.3,0000.0,0022.20,0007.84,0006.07
2021-11-22 22:55:00,,0829.4,5.01,0.00,30.9,30.2,00.0,39.8,32.7,07.3,0000.0,0022.54,0008.03,0006.16
2021-11-22 22:56:00,,0829.4,5.00,0.00,30.9,30.2,00.0,39.8,32.7,07.3,0000.0,0022.52,0008.17,0006.24
2021-11-22 22:57:00,,0829.4,5.01,0.00,31.0,30.2,00.0,39.8,32.7,07.3,0000.0,0022.98,0008.33,0006.33
2021-11-22 22:58:00,,0829.4,4.99,0.00,31.0,30.1,00.0,39.9,32.7,07.3,0000.0,0023.93,0008.36,0006.37
2021-11-22 22:59:00,,0829.4,5.00,0.00,30.9,28.1,00.0,39.8,32.2,07.3,0000.0,0024.00,0008.41,0006.39
